Tracking 30995 objects as of 5-Jul-2025
HD Live streaming from Space Station
objects crossing your sky now

STARLINK-4117

Track STARLINK-4117 now!
10-day predictions
STARLINK-4117 is classified as:


NORAD ID: 53169
Int'l Code: 2022-083AP
Perigee: 546.1 km
Apogee: 547.7 km
Inclination: 53.2 °
Period: 95.4 minutes
Semi major axis: 6917 km
RCS: Unknown
Launch date: July 17, 2022
Source: United States (US)
Launch site: AIR FORCE EASTERN TEST RANGE (AFETR)
Your satellite tracking list
Your tracking list is empty




NASA's NSSDC Master Catalog

Two Line Element Set (TLE):
1 53169U 22083AP  25186.20960530 -.00000327  00000-0 -24881-5 0  9998
2 53169  53.2163 180.3615 0001124  74.4741 285.6376 15.08843230164838
Source of the keplerian elements: AFSPC